Location: Peebles
(55.6412°N, 3.1714°W)
Time: 15:01:14
(UTC+01:00)

FENGYUN 1C DEB - Pass Details

Date: 09 July 2022
Orbit: 733 x 848 km, 99.0° (Epoch: 16 August)

Event Time Altitude Azimuth Distance (km) Brightness Sun altitude
Rises 03:20:31 0° 106° (ESE) 3,208 ? -7.7°
Reaches altitude 10° 03:23:33 10° 86° (E) 2,271 ? -7.5°
Maximum altitude 03:26:39 17° 48° (NE) 1,834 ? -7.3°
Drops below altitude 10° 03:29:43 10° 9° (N) 2,256 ? -7.1°
Sets 03:32:43 0° 349° (N) 3,177 ? -6.9°
